This is the latest recevied weather packets stored in our database for station/object KQ4UPF. If no packets are shown the sender has not sent any weather packets the latest 10 day(s).
| Time | Temp. | Humidity | Pressure | Rain* | Wind** | Luminosity | Snow |
|---|---|---|---|---|---|---|---|
| 1778089270 | 21.67° C | 92% | 1014 hPa | 0 mm | - | 78 W/m² | - |
| 1778088968 | 21.67° C | 92% | 1013.9 hPa | 0 mm | - | 81 W/m² | - |
| 1778088664 | 21.67° C | 93% | 1014 hPa | 0 mm | - | 75 W/m² | - |
| 1778088362 | 21.11° C | 93% | 1014.1 hPa | 0 mm | - | 212 W/m² | - |
| 1778088057 | 21.11° C | 93% | 1014.1 hPa | 0 mm | - | 126 W/m² | - |
| 1778087755 | 21.11° C | 93% | 1014.2 hPa | 0 mm | - | 46 W/m² | - |
| 1778087453 | 21.11° C | 92% | 1014.2 hPa | 0 mm | - | 38 W/m² | - |
| 1778087150 | 21.11° C | 92% | 1014.3 hPa | 0 mm | - | 52 W/m² | - |
| 1778086847 | 21.67° C | 91% | 1014.2 hPa | 0 mm | - | 47 W/m² | - |
| 1778086546 | 21.67° C | 92% | 1014.2 hPa | 0 mm | - | 75 W/m² | - |
| 1778086242 | 21.67° C | 90% | 1013.9 hPa | 0 mm | - | 72 W/m² | - |
| 1778085939 | 22.22° C | 89% | 1014 hPa | 0 mm | - | 60 W/m² | - |
| 1778085636 | 22.22° C | 89% | 1013.8 hPa | 0 mm | - | 74 W/m² | - |
| 1778085332 | 22.22° C | 87% | 1014 hPa | 0 mm | - | 129 W/m² | - |
| 1778085028 | 22.78° C | 86% | 1013.4 hPa | 0 mm | - | 120 W/m² | - |
| 1778084724 | 22.78° C | 83% | 1013.6 hPa | 0 mm | - | 201 W/m² | - |
| 1778084422 | 22.78° C | 84% | 1013.5 hPa | 0 mm | - | 265 W/m² | - |
| 1778084119 | 22.78° C | 83% | 1013.6 hPa | 0 mm | - | 293 W/m² | - |
| 1778083816 | 23.33° C | 84% | 1013.3 hPa | 0 mm | - | 371 W/m² | - |
| 1778083513 | 23.33° C | 85% | 1013.5 hPa | 0 mm | - | 255 W/m² | - |
| 1778083211 | 22.78° C | 86% | 1013.9 hPa | 0 mm | - | 548 W/m² | - |
| 1778082909 | 22.22° C | 84% | 1013.9 hPa | 0 mm | - | 438 W/m² | - |
| 1778081800 | 21.67° C | 89% | 1013.9 hPa | 0 mm | - | 478 W/m² | - |
| 1778081497 | 21.11° C | 89% | 1014.2 hPa | 0 mm | - | 260 W/m² | - |
| 1778081194 | 21.11° C | 89% | 1014.2 hPa | 0 mm | - | 228 W/m² | - |
* Rain latest hour (hover to see other rain measurements)
** Current wind speed in m/s (hover to see current wind gust speed)